GFSSW_sfc_thetae_108.txt.gz
Theta_e
322 322 323 322 321 321 320 320 320 320 321 321 322 323 324 324 322 321 311 316 319 325 320 312 311 311 312 309 310 307 297 294 296 296 296 302 300 301 302 301 301 306 306 313 319
321 322 322 321 321 321 320 320 320 320 320 321 322 323 324 324 317 311 320 324 324 324 310 308 306 308 303 305 305 301 296 297 299 299 297 301 300 301 298 298 300 303 307 315 320
322 322 321 321 320 320 320 320 320 320 321 322 323 323 323 322 311 310 326 324 324 320 312 310 308 307 302 304 301 299 296 298 299 301 301 300 299 301 298 297 301 302 305 311 317
322 321 321 321 319 320 320 319 320 320 321 322 323 323 322 318 299 314 324 324 324 314 311 308 306 303 300 299 302 295 299 299 302 301 300 299 302 299 300 301 304 303 307 309 315
321 320 320 320 320 319 320 320 320 321 322 323 324 323 317 307 306 314 322 320 314 312 308 306 302 302 298 299 300 296 298 299 301 300 299 300 298 298 299 302 304 305 305 306 312
320 319 319 319 319 319 319 320 320 321 322 323 324 322 311 299 315 316 313 312 311 310 307 307 304 304 300 299 297 299 299 298 301 300 300 298 297 297 299 301 302 303 302 302 306
320 319 319 318 319 319 320 320 320 321 322 323 324 318 307 304 316 314 312 311 311 310 307 308 307 303 302 298 301 299 295 298 298 299 298 299 295 296 300 300 300 300 301 303 303
320 319 318 318 319 319 320 320 321 321 322 323 324 315 303 315 316 312 312 310 311 311 310 309 308 306 303 302 299 295 293 289 296 298 298 296 289 298 299 298 298 299 299 301 303
319 318 318 318 319 319 320 320 321 322 322 323 316 311 302 316 309 312 311 307 309 309 309 309 309 303 301 295 292 293 286 290 293 299 297 295 292 298 300 297 297 299 300 301 301
319 318 318 319 319 319 320 320 322 320 319 316 313 305 304 303 311 311 310 310 307 306 304 304 301 295 294 291 284 288 288 290 288 295 294 293 293 297 299 299 298 298 299 299 302
318 318 319 319 320 320 320 317 310 309 311 304 304 302 304 309 312 308 309 307 306 303 295 299 292 290 292 294 294 291 290 288 290 295 293 292 292 294 297 297 296 297 297 298 300
319 319 319 320 321 321 321 313 311 311 304 308 308 306 308 309 303 305 308 301 300 295 297 294 290 296 298 296 294 292 289 288 292 295 292 291 291 295 296 297 298 298 298 299 299
319 318 319 319 320 319 317 316 317 316 303 306 308 305 305 306 302 302 304 301 297 294 294 292 294 298 296 293 292 290 289 288 289 292 292 290 288 292 296 298 299 300 301 300 300
318 319 319 320 316 317 314 322 319 318 293 297 304 306 306 306 300 308 306 302 297 293 294 294 297 294 292 292 293 288 292 292 291 287 283 291 281 289 294 294 297 299 299 299 299
310 312 318 320 316 312 317 322 321 316 282 298 303 310 307 301 301 301 305 301 295 295 294 291 292 292 291 292 294 290 293 291 290 287 286 286 283 287 292 291 294 297 298 299 301
308 307 311 315 315 314 320 320 314 293 281 296 301 298 298 300 299 300 299 302 301 296 295 293 296 294 293 294 294 295 292 291 289 287 281 286 285 284 288 292 294 295 300 299 298
307 306 308 313 308 315 317 311 293 284 298 294 294 298 297 295 295 296 294 293 291 287 288 292 292 294 296 291 293 292 289 281 280 279 279 288 285 288 294 296 295 297 297 298 297
306 305 305 309 315 312 306 297 283 289 293 300 298 297 294 296 295 295 293 290 295 292 288 286 284 292 294 293 290 289 290 282 276 278 280 284 281 288 296 297 298 299 300 299 297
305 305 304 308 312 311 297 284 285 289 296 297 297 293 293 295 295 293 292 292 294 295 289 288 287 294 295 295 295 289 286 292 285 279 278 284 288 293 296 297 297 298 299 299 299
300 301 301 309 311 306 292 287 288 295 296 297 292 295 290 293 292 292 292 295 295 297 297 293 287 293 293 295 294 292 295 285 285 277 276 281 283 287 292 295 297 296 296 296 298
299 293 301 310 310 299 288 289 292 298 298 293 291 294 294 292 293 292 293 296 297 296 298 294 291 286 291 289 289 289 288 290 290 287 279 277 282 293 294 295 295 296 297 295 296
297 287 302 310 294 295 289 292 294 296 298 295 293 291 294 294 292 292 292 296 298 296 292 295 290 286 287 293 295 293 290 291 284 282 285 283 285 296 295 295 296 295 296 294 295
290 292 303 303 287 289 291 291 293 294 295 294 292 293 294 290 288 292 294 298 299 297 295 296 287 283 285 291 294 291 292 293 292 288 284 280 284 295 296 297 298 297 298 297 293
290 283 293 295 295 292 289 289 288 294 294 297 295 297 294 290 294 291 293 297 299 298 298 298 290 285 284 286 290 287 290 293 291 285 284 285 288 293 295 297 298 298 298 298 297
290 285 289 284 287 291 292 290 288 287 292 293 293 294 292 288 291 291 294 293 296 297 296 293 285 287 289 290 289 288 287 289 288 290 285 287 288 291 295 296 297 297 298 298 299
288 286 288 287 288 289 289 288 288 289 290 288 288 291 292 289 291 289 293 293 291 294 294 294 283 286 282 288 288 284 287 287 288 288 290 290 289 296 297 297 294 296 297 297 298
295 294 289 286 285 285 286 286 288 291 290 291 291 290 290 291 293 293 293 293 292 291 289 288 285 280 276 284 283 278 284 286 287 289 289 285 290 295 293 292 293 293 295 294 293

GFSSW_sfc_thetae_111.txt.gz
Theta_e
322 322 323 323 322 322 322 321 320 320 320 321 322 324 324 324 323 319 310 315 317 322 319 308 307 306 306 304 304 300 291 289 291 292 293 297 296 299 300 300 300 303 308 310 321
322 322 323 322 322 321 321 320 320 320 321 321 322 323 324 324 316 310 322 327 325 322 307 304 302 303 298 300 300 296 290 292 293 293 294 297 297 298 296 297 297 301 308 317 326
320 323 322 322 321 321 320 320 321 321 321 321 322 323 323 321 310 308 324 326 323 319 309 306 305 303 298 298 295 294 292 294 295 298 298 297 296 299 296 293 297 300 306 314 318
322 322 322 322 320 320 320 320 320 321 321 322 323 323 322 315 292 311 324 324 322 311 308 304 302 297 295 294 297 291 295 296 299 299 297 296 297 295 297 298 300 301 307 312 314
321 321 321 321 321 320 320 320 320 321 321 322 323 323 314 303 303 313 322 320 310 309 305 302 298 297 293 294 296 292 293 296 298 297 295 297 295 295 296 299 299 303 305 311 312
320 320 320 319 320 320 320 320 320 321 321 322 324 323 306 295 311 313 312 310 309 306 303 302 299 300 296 295 294 295 296 295 297 297 297 295 294 295 296 298 297 301 302 305 311
320 319 319 319 319 319 320 320 320 321 321 322 323 318 304 300 311 310 309 307 307 306 303 304 303 298 297 295 298 296 291 293 295 296 295 296 291 294 296 297 296 298 298 300 304
320 319 318 318 319 319 320 320 321 321 321 322 323 311 298 311 309 309 307 305 307 307 306 305 304 302 299 298 295 291 290 286 292 296 295 293 286 295 297 296 296 295 295 298 300
319 318 318 318 318 319 320 320 320 321 322 323 311 306 297 314 307 308 306 304 305 305 304 307 304 298 297 291 287 289 283 285 290 295 295 292 287 296 298 295 294 295 296 296 297
318 318 318 318 318 319 319 320 321 320 319 317 312 297 301 301 307 307 305 306 303 301 300 299 296 291 289 286 281 284 284 286 286 292 292 290 290 294 296 295 296 295 296 297 297
318 318 318 318 319 320 318 313 306 304 307 299 299 298 303 306 309 304 305 303 302 297 290 294 289 285 288 289 290 288 286 284 287 294 291 289 290 292 294 293 292 293 293 295 296
318 318 318 319 320 321 318 309 307 307 300 307 305 304 305 307 301 302 304 297 296 290 292 290 286 292 293 292 291 289 286 285 288 292 290 288 289 291 293 294 295 296 293 294 294
318 318 318 319 320 318 315 313 315 312 301 304 305 303 303 305 299 299 301 298 293 291 290 288 291 295 294 290 290 287 286 285 286 288 288 287 285 288 292 293 295 296 296 296 296
318 318 318 319 315 316 311 319 316 314 289 294 301 303 303 303 297 304 303 298 293 291 290 289 294 292 290 290 290 285 289 289 288 285 281 288 278 285 291 292 294 296 295 294 296
312 314 319 320 315 311 314 318 318 310 275 295 301 308 303 298 299 299 302 299 292 292 291 288 290 290 288 290 291 288 291 289 288 285 283 283 280 283 286 289 291 293 294 295 297
308 309 310 316 314 315 318 318 311 290 277 295 299 297 296 297 296 298 298 300 298 292 292 290 293 291 290 292 291 293 290 290 287 284 279 283 282 281 285 289 291 292 294 297 296
306 307 307 312 308 316 316 309 290 281 293 292 293 295 294 293 293 294 292 292 290 286 285 289 289 292 293 289 292 290 285 278 278 277 277 284 281 284 290 292 293 295 295 295 295
305 306 306 309 313 312 310 297 283 289 291 298 296 295 291 293 291 292 289 288 292 289 286 284 282 290 293 290 288 287 286 280 274 276 278 283 280 287 293 295 295 296 296 296 296
305 303 304 307 312 310 302 286 286 289 294 295 295 290 290 292 291 290 287 288 291 291 285 284 284 291 292 293 292 287 285 290 283 275 277 281 285 291 294 295 295 295 295 295 296
298 299 300 308 312 304 291 285 289 294 297 297 290 291 288 290 289 290 288 292 292 294 293 291 285 290 291 293 292 290 292 284 283 274 273 279 280 284 289 292 294 294 294 294 295
296 292 300 309 309 298 287 287 291 297 297 292 290 291 292 290 290 289 290 294 295 294 295 293 288 285 290 288 288 288 287 289 288 285 278 276 281 290 293 294 293 294 294 293 293
293 286 300 308 293 293 288 291 295 295 298 294 292 289 290 293 291 290 291 293 296 295 291 293 289 280 284 291 293 291 289 289 282 281 283 281 282 295 293 294 294 294 295 294 293
288 290 300 304 286 288 290 291 292 294 294 293 291 292 293 289 289 293 294 296 298 297 294 294 287 283 284 288 290 288 290 291 290 286 281 279 281 293 293 294 295 294 294 294 294
287 282 291 295 294 290 288 289 288 293 294 296 294 295 291 289 292 288 292 297 299 298 298 298 289 286 283 285 289 285 288 292 290 284 281 283 286 292 293 293 294 293 294 295 295
286 282 286 282 287 290 292 290 288 286 292 295 292 293 291 287 290 290 292 294 296 297 296 294 285 287 289 289 289 288 288 290 289 290 285 286 287 291 294 295 292 293 294 295 294
283 282 284 284 287 288 289 288 287 288 289 287 288 292 293 288 290 288 293 292 291 294 294 293 284 285 283 287 287 284 287 289 290 290 290 290 289 295 294 291 290 292 293 290 290
290 290 284 283 283 285 286 286 289 290 289 290 290 289 289 290 292 291 296 294 294 292 290 287 283 281 278 284 282 274 283 286 286 289 290 286 289 292 287 288 289 290 289 289 290

GFSSW_sfc_thetae_114.txt.gz
Theta_e
322 323 324 324 324 323 322 322 321 320 320 320 321 323 323 324 324 317 308 315 315 326 319 306 305 304 303 302 303 298 291 288 290 290 293 295 296 296 298 299 299 301 306 309 322
321 323 323 323 323 322 322 321 320 320 320 321 321 323 324 323 314 310 322 330 327 324 305 303 301 302 298 298 299 294 289 291 291 291 293 296 295 297 295 296 297 302 310 317 323
322 321 323 323 322 321 321 321 321 320 320 321 322 323 323 319 309 307 324 327 325 318 307 304 303 301 296 296 294 292 291 293 293 295 296 296 294 296 295 292 297 300 309 319 319
321 321 323 323 322 321 321 320 320 320 320 321 322 323 322 314 290 310 324 325 324 310 306 303 300 296 294 293 296 291 294 294 297 297 296 295 295 293 295 296 298 301 315 319 320
320 320 322 322 321 320 320 320 320 320 320 321 322 323 313 301 303 311 322 320 309 308 303 301 298 296 293 294 295 291 293 295 296 295 295 295 292 293 294 297 296 300 310 317 320
320 320 320 320 320 321 320 320 320 320 321 321 323 322 303 294 309 311 311 309 307 305 302 301 299 299 295 294 293 294 295 294 296 295 295 293 291 293 294 294 296 301 306 311 314
320 320 319 319 320 320 320 321 320 321 321 321 322 316 303 298 309 309 309 306 306 305 302 302 302 297 296 294 296 295 290 292 293 294 293 294 290 293 293 295 294 296 299 303 309
320 319 318 319 319 319 320 320 320 320 321 322 322 309 295 309 308 307 306 305 306 306 305 303 303 301 297 297 295 290 289 285 290 293 293 291 285 291 294 293 294 293 293 297 301
319 318 318 318 318 319 320 320 320 321 322 323 309 301 294 313 306 307 305 303 304 303 303 307 303 297 296 290 287 287 282 284 288 293 293 290 286 292 294 293 294 292 294 294 296
318 318 318 318 318 319 319 320 320 319 318 317 311 296 299 298 305 305 304 305 301 300 299 298 294 291 288 285 281 284 283 285 284 291 290 288 289 292 293 292 293 293 294 294 295
318 318 318 318 318 320 318 313 303 302 307 297 298 296 299 305 306 302 304 302 300 296 289 293 288 286 288 289 286 287 285 283 286 291 289 289 289 291 293 292 291 291 291 292 295
318 318 318 318 319 320 315 305 303 303 296 306 304 302 304 304 299 300 303 297 294 289 291 290 285 290 291 290 289 286 284 283 286 290 289 286 288 290 291 292 293 293 292 292 291
318 318 318 318 319 318 312 313 314 311 299 302 304 301 302 303 297 298 300 296 291 289 289 286 289 292 291 288 288 286 285 284 285 287 286 285 283 286 290 291 293 294 294 293 293
318 318 318 319 313 312 310 317 316 313 288 293 299 301 302 302 296 302 301 297 291 288 289 288 291 290 289 288 288 284 289 288 287 283 279 285 277 283 288 290 289 292 291 292 293
318 317 318 319 310 308 311 318 317 306 277 293 299 307 302 296 297 298 301 297 291 290 289 287 289 288 287 288 289 286 289 287 285 283 282 281 279 283 284 287 290 292 293 293 294
310 316 318 315 314 312 317 316 310 289 276 293 298 296 294 296 296 297 297 299 296 291 289 288 292 290 290 290 289 292 289 287 285 282 277 281 281 280 284 287 288 291 293 294 294
308 310 311 311 308 315 316 307 288 280 291 291 292 294 292 291 292 293 292 291 289 285 284 288 288 290 292 288 290 287 283 277 277 276 276 281 279 282 288 290 291 293 293 294 295
307 307 307 308 311 316 310 295 282 285 288 297 294 293 289 292 291 291 290 288 290 287 285 283 282 289 291 289 287 285 284 278 273 275 277 282 279 285 290 293 293 294 292 294 294
306 303 303 307 311 315 302 285 286 289 292 293 293 289 289 291 290 289 286 288 291 289 285 283 284 290 291 291 292 286 283 287 281 272 276 280 284 288 292 293 293 293 293 293 294
298 300 300 308 311 307 295 287 289 294 296 294 288 290 286 289 288 288 287 290 290 292 291 288 282 288 290 293 291 288 291 283 281 272 272 277 279 282 288 290 292 293 292 293 294
296 293 301 308 308 294 285 286 291 296 297 293 290 289 289 288 288 287 287 290 293 291 294 292 286 284 288 287 286 287 286 287 286 282 276 274 279 287 291 291 292 292 293 293 293
293 287 299 308 291 291 285 289 295 295 297 294 292 291 290 290 288 287 287 290 295 294 291 292 286 280 283 288 291 289 287 287 281 280 281 280 281 292 292 292 293 292 293 292 292
288 289 300 303 286 287 290 291 294 293 294 292 291 292 291 289 289 290 291 295 295 294 291 293 285 280 281 286 288 287 288 289 288 284 280 279 280 292 291 291 292 292 293 293 292
286 285 290 295 295 290 288 288 288 294 294 294 293 294 291 287 291 290 292 295 296 297 298 297 288 285 282 283 288 285 288 290 289 283 281 283 285 287 290 291 291 291 292 291 290
286 283 287 285 287 291 291 290 287 287 292 295 292 292 290 286 287 289 290 294 296 296 296 293 285 287 287 288 285 284 286 289 288 288 285 286 287 290 293 292 291 292 290 289 290
283 282 285 283 290 289 290 288 287 288 290 289 289 292 292 288 289 288 289 291 291 294 293 292 284 286 284 288 288 285 287 288 288 288 287 289 289 294 291 291 290 289 289 289 289
292 289 284 283 283 287 286 288 289 290 289 291 292 291 290 291 292 291 296 295 295 292 290 287 284 283 280 285 283 277 283 287 289 291 291 286 290 290 287 289 288 287 288 288 288

GFSSW_sfc_thetae_117.txt.gz
Theta_e
323 324 324 325 324 324 323 323 322 321 321 321 321 323 323 324 323 315 305 312 314 327 319 305 304 303 302 301 301 296 291 288 289 290 292 295 294 296 297 298 299 300 308 309 323
322 324 323 324 324 323 323 322 321 321 320 320 320 322 323 323 312 308 320 329 328 325 305 302 300 301 297 297 297 293 290 291 292 291 293 296 295 296 295 294 299 303 309 316 324
322 322 324 324 323 323 322 322 321 320 320 320 321 322 323 319 306 304 325 328 327 319 306 304 303 301 295 295 293 293 290 293 292 294 295 296 293 294 294 292 296 300 307 317 319
321 321 323 323 323 322 322 321 320 320 319 320 321 322 321 313 290 309 324 326 325 308 305 302 300 296 294 293 294 289 293 294 296 295 295 294 294 292 293 295 296 300 312 319 320
320 320 320 322 322 322 321 321 320 320 320 320 321 322 312 300 301 311 322 320 308 306 302 300 297 295 293 293 293 290 292 294 295 294 294 295 292 293 294 296 297 301 315 318 321
319 319 319 321 321 321 321 320 320 320 320 320 322 321 303 292 307 311 310 308 306 304 302 300 298 298 294 293 292 293 293 292 294 293 294 292 290 292 292 293 294 304 311 315 318
319 319 320 320 320 321 321 321 320 320 320 320 321 315 301 297 308 309 308 306 306 304 301 302 300 297 296 293 295 293 290 290 292 293 292 293 288 291 292 293 292 296 304 309 314
319 319 319 319 320 320 320 321 320 320 320 321 322 308 295 307 307 305 305 304 305 305 304 303 303 300 295 295 294 289 288 284 288 292 292 289 285 289 293 292 292 291 292 298 305
319 318 319 319 319 319 320 320 320 320 321 322 307 298 291 312 305 306 303 302 303 303 303 306 302 296 294 290 287 287 281 283 286 292 291 288 286 290 292 292 293 291 292 293 294
318 318 318 318 318 318 319 320 319 318 318 317 311 298 297 298 303 304 303 304 300 300 299 298 294 290 288 286 281 283 282 283 283 289 289 287 289 291 292 291 292 292 292 292 293
318 318 318 318 318 319 319 312 303 302 303 296 297 294 297 303 304 301 303 301 299 295 290 292 289 286 288 288 286 286 284 283 285 290 288 288 288 291 292 291 290 291 291 291 292
318 318 318 318 318 320 313 303 301 302 295 304 304 301 303 303 297 299 302 296 293 288 290 289 285 290 290 289 287 286 284 283 286 289 288 285 287 290 290 291 292 291 290 290 290
318 317 318 318 318 316 310 309 312 311 294 296 303 300 301 302 296 297 299 295 290 288 288 286 288 291 290 286 286 284 283 283 284 286 285 284 283 285 288 289 292 291 292 291 292
318 317 317 318 311 310 307 314 317 308 287 292 296 300 301 302 295 301 300 296 290 287 288 287 289 289 287 286 287 283 288 287 286 283 280 283 277 283 285 288 288 290 290 290 292
318 317 318 317 308 307 309 315 316 303 275 292 296 303 301 296 296 296 299 296 290 288 289 286 288 287 286 288 288 285 288 286 284 282 281 280 279 282 283 286 286 291 293 292 292
318 317 317 314 312 311 315 316 307 287 273 289 297 294 293 295 295 296 296 297 294 290 288 287 290 289 288 289 289 290 287 286 283 280 277 280 280 279 282 285 290 291 292 293 293
310 316 315 313 307 315 316 306 286 280 290 290 290 292 292 290 291 292 291 290 287 284 282 286 286 290 290 287 289 286 283 277 276 275 276 279 278 281 285 289 290 292 292 292 292
309 310 310 311 310 314 309 295 281 284 286 295 293 291 288 290 289 290 289 287 291 286 284 282 280 288 290 288 286 284 284 278 272 273 276 281 278 283 289 291 292 292 292 293 293
307 304 304 307 311 312 300 285 284 286 291 292 293 288 286 290 289 288 288 288 291 288 284 282 283 289 289 289 291 284 281 285 279 271 275 279 282 288 290 290 291 292 292 291 291
299 301 301 307 311 307 293 287 288 292 295 294 288 290 285 288 287 287 286 289 288 290 288 288 282 287 289 291 290 287 289 282 279 271 271 276 279 281 287 289 290 290 290 290 291
297 294 301 308 307 298 287 288 290 295 296 293 290 289 289 288 288 287 287 289 292 290 292 289 286 284 288 286 285 286 284 285 285 281 276 273 278 284 289 290 290 290 290 290 290
293 288 300 308 288 286 285 290 295 294 297 293 291 291 290 290 287 287 286 288 292 293 290 291 286 279 283 287 290 287 286 286 281 278 280 279 279 291 291 291 291 290 290 289 290
289 291 301 303 285 285 285 289 294 293 293 292 291 293 292 291 287 288 288 294 294 292 291 291 284 276 279 284 286 285 286 287 285 282 278 275 278 290 290 290 291 291 289 289 289
287 284 290 295 295 289 286 286 287 295 294 294 293 294 291 289 291 289 290 293 295 295 298 296 287 285 281 282 287 285 287 287 287 279 281 281 282 286 288 289 290 289 289 289 289
286 282 286 285 287 290 290 288 286 287 294 294 290 291 289 286 288 289 291 294 294 296 294 293 285 284 285 286 285 285 286 287 286 287 283 285 286 289 290 290 290 289 288 288 288
282 281 285 284 291 290 290 287 287 288 290 289 289 291 291 288 289 288 290 290 292 293 292 291 285 287 285 288 287 284 286 288 289 288 285 286 285 293 294 290 288 287 287 287 288
291 288 284 283 286 287 287 288 289 290 290 293 292 291 290 292 294 293 295 295 294 292 289 288 285 285 283 286 286 283 286 287 288 288 289 286 289 291 289 289 287 287 288 288 288

GFSSW_sfc_thetae_120.txt.gz
Theta_e
324 324 324 324 325 324 324 323 323 322 321 322 320 321 322 322 322 313 304 310 313 327 318 304 303 302 302 300 300 295 290 287 288 289 291 293 294 294 296 297 296 300 305 307 324
323 324 325 325 325 324 323 323 322 321 321 320 320 321 322 322 308 305 318 326 327 326 304 302 299 299 297 296 297 293 288 290 291 290 292 294 294 295 296 294 298 301 306 316 325
322 322 324 324 324 323 323 322 322 321 320 320 320 321 322 317 302 300 325 326 325 318 305 302 301 300 295 295 294 292 290 291 291 292 294 295 294 294 295 292 296 298 306 317 320
321 321 322 323 324 323 322 322 321 320 320 320 320 321 321 310 287 306 323 324 321 308 304 301 299 295 293 292 294 290 292 292 294 294 294 294 295 292 293 296 295 299 310 318 320
320 320 320 322 323 322 322 321 320 320 320 320 320 321 310 298 298 309 321 318 306 305 301 299 296 295 292 292 293 289 290 293 294 294 292 294 291 292 293 296 296 300 314 318 320
320 319 320 320 321 322 321 321 320 320 320 320 321 320 303 289 305 310 309 307 305 303 300 299 298 297 293 292 291 291 293 292 293 292 292 290 289 292 290 293 294 305 310 315 318
319 319 319 319 320 321 321 321 320 320 320 320 321 312 298 295 306 308 308 305 305 303 300 301 299 296 295 292 294 292 290 289 290 292 291 292 288 290 290 291 292 295 304 310 313
319 318 318 319 320 320 321 321 321 320 320 320 321 304 292 304 305 305 305 304 304 305 304 302 302 299 295 294 293 289 287 284 287 291 291 288 285 287 291 290 290 290 292 300 308
318 318 318 319 319 320 320 320 320 320 321 321 304 296 290 310 302 304 302 302 303 302 303 304 300 295 294 289 286 286 281 282 286 291 290 288 285 288 290 291 291 290 291 291 294
318 318 319 319 319 319 319 320 320 318 316 315 308 294 295 296 302 302 301 303 300 300 299 297 293 290 287 286 281 282 282 282 283 288 288 286 288 290 290 289 290 290 291 292 292
318 318 318 318 318 320 318 313 304 300 301 294 296 292 294 301 302 299 301 300 297 295 290 291 289 286 288 287 286 286 283 282 284 289 288 287 287 290 291 291 291 291 291 290 291
318 318 318 318 319 320 314 302 300 301 295 303 302 300 302 302 296 297 301 295 292 288 290 288 285 290 291 288 287 285 283 282 285 288 287 285 287 288 289 290 291 290 290 290 289
318 318 317 317 318 316 311 308 312 310 292 295 303 299 300 301 294 296 298 294 289 287 288 286 287 291 290 286 286 283 283 283 284 285 285 283 283 284 286 287 289 288 289 289 290
317 317 317 317 311 309 307 313 314 310 288 291 295 299 300 300 293 299 299 295 288 287 287 286 289 288 287 285 286 282 287 286 285 283 279 282 277 282 284 287 287 290 290 290 291
317 317 317 316 306 305 306 314 315 302 276 291 294 302 300 295 294 294 298 295 288 288 288 285 287 286 285 287 288 285 287 286 284 281 280 280 279 281 282 285 284 289 291 291 291
317 316 317 311 308 308 314 314 305 287 275 288 294 292 293 293 293 295 295 296 292 289 287 286 289 288 287 287 288 289 286 285 283 280 277 280 280 279 281 283 288 290 291 291 291
317 316 314 313 305 314 313 305 286 278 288 288 289 291 290 289 290 291 290 288 286 282 281 285 286 289 289 287 288 285 283 277 276 275 276 279 278 281 284 286 289 291 290 290 291
312 315 313 312 314 314 307 294 281 284 284 293 291 290 287 289 288 289 289 287 289 284 283 281 279 287 289 287 286 283 284 278 272 273 275 280 278 282 288 289 291 291 290 291 290
308 305 306 308 314 310 298 284 283 284 289 291 290 286 285 288 288 287 287 288 290 287 283 281 281 287 288 288 289 284 281 284 279 270 275 279 282 286 289 289 290 290 290 289 289
301 301 301 308 313 305 292 287 287 291 292 292 286 287 283 285 285 284 284 287 287 289 288 287 281 286 288 289 289 286 288 281 279 271 270 276 278 280 286 288 289 288 288 289 289
299 295 302 307 310 297 285 288 290 294 295 292 288 287 286 286 287 286 285 288 290 289 290 288 285 283 287 285 284 284 283 283 283 280 275 271 277 284 290 290 288 288 289 288 288
294 289 301 304 290 289 285 291 295 293 295 292 291 291 289 289 287 286 287 288 292 292 289 289 286 281 283 286 289 287 285 285 281 278 279 278 280 289 290 290 289 288 289 288 288
290 291 301 300 283 284 285 289 293 293 293 292 290 292 292 290 286 288 288 292 292 292 290 290 283 276 279 284 285 284 285 284 283 281 277 275 280 288 288 288 289 288 287 287 287
290 286 291 295 294 288 285 286 288 294 293 294 293 293 291 289 291 288 289 294 295 292 297 295 286 284 280 282 286 284 285 286 286 279 282 281 281 285 287 288 288 287 287 287 287
286 283 287 285 288 289 290 287 286 287 293 294 291 292 291 287 289 289 291 293 294 296 294 292 282 283 284 285 285 284 285 286 285 287 282 285 284 288 289 289 289 287 287 287 287
283 282 285 284 290 289 289 287 286 286 290 288 289 291 292 288 291 288 291 292 291 293 292 292 280 282 278 285 285 281 285 287 288 288 287 283 284 291 292 289 287 287 287 286 287
288 286 284 283 287 287 287 288 288 290 291 293 292 290 289 291 294 294 295 294 294 292 290 288 285 282 281 284 285 282 285 286 288 290 289 284 289 290 288 290 288 286 286 286 287

GFSSW_sfc_thetae_123.txt.gz
Theta_e
325 325 324 324 324 325 325 324 324 324 324 323 321 321 321 322 322 312 302 309 313 326 318 305 305 304 304 302 302 299 292 289 291 292 294 295 296 298 300 300 302 307 308 312 326
325 324 324 325 325 325 324 324 324 323 322 323 322 321 321 322 307 303 315 323 326 328 305 302 301 301 299 299 299 296 291 292 294 293 294 295 296 297 298 299 300 303 311 322 328
324 324 324 325 324 323 324 323 323 322 321 321 321 321 321 316 300 299 323 326 328 319 305 303 302 301 297 298 297 295 293 294 294 295 296 296 295 297 297 296 299 301 307 321 324
322 322 323 323 323 324 323 323 322 321 321 320 321 321 320 309 288 305 325 324 324 307 304 301 300 297 295 294 295 293 294 294 296 296 296 296 296 295 296 299 299 301 311 321 322
321 321 321 322 322 324 323 322 321 320 320 320 320 321 309 296 297 308 322 319 307 305 301 300 297 296 293 293 294 292 292 294 295 295 295 296 294 295 295 297 299 301 315 321 323
320 319 320 320 321 323 323 322 321 320 320 320 321 321 300 290 303 310 308 305 303 302 300 300 298 298 294 293 291 293 293 293 294 293 294 293 291 294 294 294 297 305 311 317 321
320 319 319 319 320 321 322 322 321 320 320 320 321 311 297 294 306 307 306 303 304 302 300 300 300 298 296 293 295 293 291 291 292 293 293 293 290 292 294 293 294 298 305 312 316
319 318 318 319 320 321 321 321 321 320 320 320 321 305 292 303 304 304 303 302 303 303 302 302 302 299 296 295 293 290 289 286 289 292 292 291 287 289 293 293 293 293 295 303 312
318 318 318 318 319 319 320 321 320 320 320 321 304 295 290 309 301 303 302 301 301 301 302 303 300 295 294 290 287 287 283 284 287 292 292 289 287 290 293 292 291 293 293 293 296
318 317 318 319 319 319 320 320 320 319 317 314 306 293 293 295 301 300 300 302 299 299 299 297 293 290 288 287 283 284 283 283 284 289 290 288 289 291 292 291 293 292 293 293 293
318 317 318 319 319 320 318 313 304 299 301 293 294 291 294 300 301 298 300 298 297 295 290 291 289 286 287 288 287 287 285 284 285 290 289 287 288 290 292 292 292 293 293 292 293
318 318 318 319 319 320 313 303 300 300 293 302 301 299 300 301 295 296 299 293 292 287 289 289 285 290 291 289 288 286 285 284 286 289 289 286 288 290 290 292 292 292 292 292 292
318 318 318 318 318 316 308 305 312 308 291 295 301 298 299 300 294 295 297 292 289 287 287 285 288 291 290 287 286 284 284 284 284 286 286 284 285 287 287 289 290 291 292 292 292
317 317 318 318 312 310 307 312 313 310 288 290 294 296 299 299 292 298 297 293 287 286 286 286 288 288 287 285 287 283 287 287 286 284 281 284 279 283 285 287 288 292 291 291 292
317 317 317 316 306 306 307 313 314 301 277 291 292 301 299 293 293 293 297 292 287 286 287 284 286 286 285 286 288 285 287 286 284 283 282 281 280 283 284 286 287 291 292 292 292
317 317 316 311 307 308 312 313 305 286 275 288 293 292 293 292 292 293 294 293 291 288 285 285 288 287 287 287 287 288 286 285 283 281 278 281 281 280 283 285 288 291 291 292 293
316 316 314 310 302 312 312 302 283 278 287 287 288 290 289 288 290 290 289 286 284 281 279 285 285 287 289 286 288 285 284 278 277 276 277 279 279 282 285 287 290 291 291 291 292
315 315 312 310 312 312 306 291 277 282 283 291 290 289 287 289 287 289 288 286 287 283 280 279 278 286 288 287 285 283 284 279 273 273 276 281 278 283 287 291 291 292 291 291 291
315 312 309 309 313 310 299 283 282 284 288 290 289 286 285 287 287 287 287 287 289 286 282 279 279 287 287 288 290 284 281 284 279 271 275 279 282 287 289 289 290 290 290 290 290
302 302 303 308 313 306 293 285 286 289 292 291 284 286 282 284 285 283 284 287 286 289 287 286 280 286 287 289 288 286 287 281 279 271 271 276 278 281 286 287 288 288 289 289 290
299 293 302 307 307 297 285 287 289 294 295 290 287 285 284 284 285 284 284 287 289 288 289 287 285 283 287 285 283 284 282 283 282 280 275 272 277 284 289 290 289 289 289 289 289
296 286 301 306 291 290 286 290 294 293 294 292 290 289 286 286 284 284 285 287 290 291 288 287 285 281 283 286 289 286 284 284 279 277 278 277 279 288 289 290 290 289 289 288 288
291 291 301 300 283 284 286 291 293 292 292 292 290 291 291 288 285 287 287 290 290 291 289 289 283 274 279 283 285 285 285 283 283 282 277 276 281 288 288 289 290 289 288 287 287
291 286 291 291 290 288 286 288 288 294 292 293 292 293 291 289 291 287 287 291 292 290 296 294 285 284 279 282 285 284 285 285 285 278 282 281 284 285 286 287 287 288 287 287 287
287 285 287 284 286 289 290 289 287 287 292 293 290 292 291 287 287 287 290 292 293 295 293 291 281 282 283 285 284 284 284 284 284 286 281 285 282 286 288 289 289 288 287 287 287
285 283 286 286 291 288 288 286 287 287 291 289 287 291 292 289 289 287 290 291 290 293 291 292 281 282 278 284 285 281 284 286 287 287 286 282 283 288 292 289 287 288 288 287 287
288 287 285 284 288 287 286 287 288 289 290 292 292 291 290 292 294 293 295 295 294 292 290 289 283 280 281 282 283 281 285 284 286 288 288 284 289 290 288 290 288 288 288 287 287

GFSSW_sfc_thetae_126.txt.gz
Theta_e
326 325 325 324 324 325 326 326 326 326 326 325 324 323 322 323 322 314 304 311 314 326 319 310 309 309 310 308 307 307 303 299 299 300 301 304 303 304 306 307 311 314 312 320 335
326 325 325 325 324 325 326 325 325 325 324 324 323 323 323 322 310 306 318 323 325 327 309 308 305 307 305 305 305 306 302 301 302 303 303 304 305 305 304 305 306 309 315 326 334
324 324 324 324 324 324 325 324 324 324 322 323 322 322 322 319 304 303 323 326 327 322 310 309 308 305 302 304 303 303 300 301 300 301 303 304 302 305 305 303 307 307 313 326 328
323 324 324 324 324 324 325 324 323 322 321 321 321 321 320 314 294 309 325 328 329 313 308 306 305 303 301 300 300 300 299 301 301 302 301 302 304 302 305 306 305 309 316 326 326
321 322 322 323 323 324 324 324 323 322 321 321 321 321 314 302 301 312 323 323 316 309 306 305 303 302 299 300 299 300 299 299 300 301 301 301 301 302 302 306 305 305 317 325 327
320 320 321 321 322 323 323 324 322 321 321 320 321 321 305 295 309 314 313 308 309 308 306 306 304 304 300 298 299 299 300 299 299 299 300 300 299 300 302 302 303 308 313 322 326
320 320 320 320 321 322 322 323 322 321 321 320 321 313 303 300 311 313 310 308 308 308 305 306 306 303 302 298 299 299 296 298 298 298 298 300 296 298 301 300 301 305 310 317 324
320 319 319 319 320 322 322 322 321 321 321 322 322 311 298 308 312 309 309 307 308 308 308 308 307 304 301 301 298 296 297 294 295 298 298 299 296 297 300 299 301 302 306 311 318
319 318 318 319 319 320 321 321 320 320 320 322 311 304 296 313 306 308 308 306 306 307 307 306 307 301 300 298 295 294 291 292 292 297 297 296 295 296 299 299 300 301 302 304 308
318 318 318 318 319 319 320 320 321 321 319 314 309 300 300 300 306 306 307 307 305 305 304 303 302 299 298 296 289 290 290 290 292 295 295 294 295 297 300 299 301 301 302 303 303
318 318 318 318 319 320 319 316 306 304 309 299 299 296 297 305 306 303 306 304 304 302 297 298 296 293 296 297 295 294 293 291 291 294 295 295 295 298 300 299 300 302 303 303 303
318 318 318 319 319 319 316 305 303 306 296 305 304 302 303 305 299 301 305 301 300 294 297 295 292 296 297 294 293 293 292 290 292 293 294 293 294 298 299 299 302 302 303 301 300
317 317 318 318 318 316 311 307 312 307 295 297 303 300 302 303 298 299 302 299 297 294 295 292 294 296 294 292 292 291 291 289 291 291 291 291 293 295 296 296 297 297 299 299 299
317 317 318 318 312 312 308 315 316 312 289 291 297 301 302 302 297 301 302 299 295 294 294 294 293 293 293 292 294 289 292 292 290 290 287 290 286 292 293 294 294 297 299 299 299
317 317 318 317 311 307 309 315 316 305 279 293 295 304 303 298 298 298 302 298 293 292 294 291 291 291 291 292 294 291 293 292 290 289 289 288 287 291 290 292 294 297 298 298 299
317 317 317 312 312 311 315 315 308 288 279 289 295 295 295 295 295 297 298 299 297 293 292 292 294 294 294 291 293 293 292 291 290 289 283 288 288 289 292 292 293 296 297 298 299
316 316 315 312 306 314 316 308 288 281 290 289 289 294 293 292 293 294 293 292 291 287 287 290 290 293 294 291 292 292 291 284 283 282 282 285 284 290 293 292 295 297 297 297 297
316 315 314 310 312 313 307 293 281 287 287 294 292 293 288 291 291 292 292 289 292 291 288 286 283 291 294 292 290 291 291 285 279 279 283 284 283 289 292 294 296 298 298 297 297
316 313 309 309 312 311 297 284 285 288 292 292 291 288 288 291 291 291 290 290 292 292 287 285 286 292 292 293 294 289 287 291 283 279 283 286 288 293 293 294 294 295 295 296 296
311 308 305 312 312 306 291 287 289 293 295 294 287 290 286 288 288 290 289 293 292 293 293 290 284 290 291 294 293 292 293 286 287 280 279 283 284 288 289 292 294 294 295 295 295
301 300 306 312 308 297 285 288 291 295 297 292 290 288 290 288 290 289 289 291 294 292 294 291 290 287 291 289 289 288 287 287 289 287 283 280 285 292 294 295 294 295 296 295 295
294 286 302 310 292 293 288 292 295 295 297 295 295 292 290 290 289 289 289 292 295 294 289 292 290 286 287 291 294 291 290 290 286 283 285 283 285 292 293 297 297 296 295 296 295
286 288 300 305 285 286 289 292 295 294 295 294 293 294 293 290 287 290 290 294 294 294 292 292 289 283 284 288 291 289 289 291 291 289 285 284 286 292 293 295 296 295 294 293 293
288 285 287 293 292 291 287 289 289 297 296 296 294 295 293 290 293 290 290 295 294 295 296 295 289 287 283 286 290 287 288 288 288 286 286 286 289 290 291 293 294 295 295 293 292
287 285 285 283 285 290 291 290 289 290 296 296 292 295 293 289 290 289 292 293 295 296 295 294 286 288 290 289 290 289 289 288 287 289 285 289 288 292 294 294 295 296 294 292 292
286 286 286 286 289 289 289 288 289 290 293 292 292 293 295 292 292 289 292 292 292 295 293 293 288 287 283 288 289 287 289 290 290 290 290 290 289 295 297 297 296 293 292 291 291
290 289 289 285 285 286 286 287 289 291 290 294 295 294 293 294 296 297 297 298 296 293 291 291 286 286 284 286 287 284 287 289 290 292 291 287 292 295 293 293 294 293 293 292 293

GFSSW_sfc_thetae_129.txt.gz
Theta_e
326 325 325 324 325 324 325 327 327 327 326 326 325 324 323 323 321 313 307 313 314 327 321 312 312 311 312 311 311 310 304 301 302 303 303 308 305 308 310 309 312 315 314 322 336
325 325 325 325 325 324 326 327 327 326 326 325 324 323 322 322 311 307 319 324 325 328 310 309 306 309 307 308 308 306 303 304 307 306 305 307 306 306 305 307 308 312 319 329 334
324 324 324 324 324 324 325 326 325 325 324 324 323 323 322 319 305 305 327 326 327 325 312 311 310 307 305 307 306 306 303 305 304 305 308 306 305 308 305 304 307 307 315 327 330
323 323 323 324 324 324 325 324 325 324 323 323 323 322 321 313 295 310 325 328 329 318 311 308 306 304 302 301 305 302 302 304 304 304 306 305 307 305 307 307 309 311 317 325 328
322 322 322 322 323 324 324 324 324 323 322 322 322 322 314 304 303 315 324 326 321 312 309 307 304 304 300 302 302 301 301 303 304 304 306 306 305 305 306 309 309 310 317 323 326
320 321 321 321 322 324 324 324 323 322 321 321 322 321 309 297 311 316 316 316 312 310 308 308 305 306 302 301 301 303 301 300 303 303 303 304 303 303 306 308 307 309 314 321 324
320 320 320 321 321 322 323 323 322 321 321 320 321 313 305 302 313 315 312 311 311 311 307 309 309 305 304 299 302 302 298 300 300 301 300 303 299 300 303 304 305 307 311 316 322
320 319 319 320 321 321 322 323 322 321 321 322 322 311 300 310 315 311 311 309 311 310 309 310 309 306 304 303 300 298 300 295 299 300 300 300 298 304 303 302 303 304 308 312 317
319 318 319 319 319 320 321 321 320 321 321 322 312 307 298 311 307 311 311 307 308 309 309 308 308 304 302 298 295 296 292 295 294 300 299 298 298 301 302 302 302 304 305 307 312
318 318 318 319 319 319 320 319 320 320 318 314 310 300 301 300 307 309 310 309 305 306 304 304 303 298 299 296 289 292 292 294 294 296 297 296 297 299 301 301 302 303 304 305 306
318 318 318 318 319 320 318 315 306 305 306 299 300 298 300 307 308 306 308 306 306 303 296 301 296 293 295 298 298 297 295 293 296 296 296 296 297 299 302 302 302 303 303 304 305
317 318 318 318 319 319 315 304 304 306 297 305 305 302 304 306 299 303 307 301 300 295 299 296 293 298 300 299 296 296 294 293 294 295 296 296 295 299 301 301 302 303 304 305 305
317 317 317 318 318 316 311 306 312 309 295 298 303 301 302 304 299 300 304 302 298 295 296 293 295 299 297 295 294 294 293 293 293 294 295 294 293 296 300 301 302 303 304 303 303
317 317 317 317 312 313 308 313 315 310 289 291 296 299 303 304 297 304 305 302 298 294 296 295 297 296 295 293 295 291 296 295 293 292 288 293 287 295 298 297 298 300 301 302 303
317 317 317 317 312 308 311 317 317 307 279 294 295 307 304 298 298 298 303 300 295 296 296 293 293 293 293 294 296 293 296 295 294 292 290 290 288 293 296 294 296 299 301 302 303
316 316 316 314 315 313 317 317 309 288 278 289 296 295 295 297 297 299 299 301 300 295 295 294 296 297 296 295 297 296 294 294 293 292 284 290 289 290 293 294 297 298 301 301 302
316 315 315 314 308 315 317 307 288 281 293 289 290 294 293 292 294 295 294 293 291 288 288 292 292 294 296 292 295 295 292 285 283 283 283 289 288 291 297 295 297 298 299 301 301
315 315 313 312 313 315 311 295 281 287 288 294 292 293 289 292 292 293 292 290 294 293 290 286 284 292 295 294 291 292 292 286 280 281 284 286 284 291 298 296 297 300 301 300 300
315 313 311 310 313 314 300 285 285 290 293 292 292 288 288 291 291 291 291 291 293 294 289 288 287 294 294 295 296 291 288 294 286 282 285 287 290 295 296 295 296 298 298 298 299
310 307 307 311 313 307 294 288 290 295 296 294 287 290 286 288 289 289 290 294 293 295 297 292 286 291 292 295 295 293 295 286 288 282 281 285 287 289 292 293 295 296 297 298 299
306 301 307 311 309 298 286 289 293 296 298 293 291 289 290 289 290 288 290 294 296 295 296 294 291 287 291 290 289 290 289 290 290 289 284 282 286 296 295 297 296 297 298 299 298
293 287 307 309 291 292 288 293 296 295 299 296 297 294 292 292 289 289 289 292 297 296 290 294 292 286 288 293 295 294 291 291 286 284 287 286 286 294 295 299 299 298 299 299 299
286 287 298 304 284 285 292 294 295 295 295 295 294 295 295 292 288 291 292 297 297 295 292 294 291 284 284 289 293 290 291 292 292 293 287 285 287 296 295 297 299 299 299 298 298
286 284 287 296 298 291 289 291 291 298 296 297 296 297 293 291 294 291 292 294 297 296 297 295 292 288 284 287 290 287 289 291 291 288 286 287 289 293 294 295 297 298 298 297 296
285 285 285 285 289 292 292 291 290 290 297 298 294 295 293 289 290 290 293 294 294 296 296 295 287 289 291 292 292 291 289 290 288 290 286 289 290 293 296 297 297 299 297 296 295
287 286 286 287 291 291 291 289 289 292 294 293 293 295 295 292 292 290 293 293 292 294 293 295 287 290 285 291 290 288 291 291 290 290 290 291 290 297 299 300 299 298 297 295 295
290 290 289 286 288 289 288 290 291 294 293 297 296 295 294 296 298 299 299 298 297 293 292 292 288 286 284 288 287 283 287 290 291 293 292 287 292 297 296 297 298 298 297 296 296

GFSSW_sfc_thetae_132.txt.gz
Theta_e
326 326 326 326 325 326 326 327 328 328 327 327 326 325 324 324 322 313 308 315 315 325 322 311 311 310 312 310 311 309 299 298 299 299 299 303 300 303 304 305 305 309 313 325 332
325 325 325 325 325 326 327 327 327 327 327 326 325 324 323 323 310 307 321 328 326 327 310 307 305 308 305 306 306 302 299 301 303 301 301 303 302 301 299 303 304 309 323 331 331
323 324 324 324 324 325 326 327 326 326 326 325 324 323 322 319 305 305 327 329 328 326 312 310 309 306 304 305 303 302 300 301 302 303 305 302 300 302 299 298 303 306 318 327 326
321 323 323 324 324 324 325 326 326 325 325 324 323 322 321 314 294 312 326 330 328 318 311 308 306 302 301 299 303 298 301 302 303 303 304 301 302 298 300 299 304 308 319 325 323
320 322 322 323 323 323 325 326 325 324 323 323 323 322 314 303 304 315 325 327 321 315 307 305 303 302 298 299 300 298 298 301 302 302 303 303 301 299 299 302 303 311 318 322 324
320 321 321 321 322 323 324 325 324 323 322 323 322 322 310 296 311 316 317 319 314 309 307 306 304 304 300 299 298 300 300 299 301 301 301 300 299 299 301 302 302 307 314 318 323
319 320 320 321 322 322 323 324 323 322 322 321 322 316 304 302 312 315 314 312 311 309 306 308 308 303 302 297 300 299 295 297 297 299 297 299 295 296 300 301 301 303 308 316 319
319 319 320 320 321 322 322 323 322 321 321 322 321 312 300 312 313 312 311 309 310 310 309 309 308 305 303 300 298 295 294 290 295 297 297 296 293 299 298 298 297 300 301 307 315
318 319 319 320 320 321 321 321 320 321 322 323 313 307 298 312 307 310 310 306 307 307 308 307 307 302 301 294 290 292 288 291 292 297 296 294 293 296 298 297 296 297 299 305 308
318 318 319 319 319 320 320 320 320 321 318 314 309 300 302 300 307 309 309 308 304 304 302 302 300 296 294 291 284 287 286 291 290 293 294 292 292 295 296 296 295 295 296 299 304
318 318 319 319 319 320 317 313 306 304 305 298 299 299 300 306 308 305 307 305 304 301 294 298 292 289 292 294 294 291 290 289 291 294 292 292 293 295 296 295 295 296 296 296 299
317 318 318 319 320 319 313 304 303 305 296 304 304 302 305 305 299 303 306 299 298 292 296 293 289 296 297 296 294 291 290 288 290 293 292 292 291 294 295 295 296 296 296 297 297
317 317 318 319 318 314 308 306 309 307 295 299 303 300 302 304 298 299 302 300 296 293 293 290 293 298 296 293 292 290 289 288 289 291 291 288 288 291 295 296 297 297 297 296 298
317 317 317 318 312 312 306 311 313 309 288 291 296 299 303 303 297 303 303 300 296 292 293 292 295 294 293 292 293 288 292 292 290 287 282 288 279 288 291 293 295 295 295 296 297
316 317 318 317 311 307 309 314 314 305 277 292 295 305 303 297 297 298 302 299 294 293 293 290 291 292 291 292 294 290 293 291 290 287 284 283 280 285 291 289 291 294 295 296 298
316 316 317 314 313 312 314 316 308 288 278 288 295 294 295 297 296 297 297 299 298 294 293 291 294 294 293 293 294 294 291 290 288 286 279 284 282 283 286 290 291 293 295 297 297
315 315 315 314 307 314 315 304 285 280 292 288 289 293 292 292 293 293 292 290 288 285 285 289 289 291 294 290 292 291 287 279 278 277 277 284 282 286 289 289 291 293 295 296 297
315 315 313 313 314 314 308 293 280 286 288 293 291 292 288 291 291 292 290 287 291 289 287 284 281 288 292 291 288 288 287 281 275 276 277 281 279 285 291 292 293 295 296 296 296
315 313 310 311 313 312 297 283 283 287 292 290 291 287 287 290 290 290 289 288 291 291 285 284 284 291 292 293 293 288 285 290 282 276 278 281 284 290 292 291 291 294 295 294 295
310 308 307 312 313 305 292 286 289 294 295 292 286 289 285 287 287 288 288 291 291 293 293 289 283 289 290 292 292 290 292 284 283 273 273 278 280 283 287 289 291 292 293 294 295
306 301 307 312 309 297 286 287 292 296 297 291 289 288 288 287 288 287 288 291 294 292 293 290 289 285 289 287 287 287 286 287 287 285 278 275 279 288 290 291 291 291 294 294 294
296 291 308 309 291 291 287 291 295 294 297 294 294 292 289 289 287 287 287 290 295 294 289 291 290 282 285 291 293 290 288 288 281 279 281 281 280 290 290 292 293 292 295 295 295
287 288 304 304 285 286 290 293 294 293 294 293 293 294 294 290 286 289 290 295 295 294 290 292 287 279 282 286 290 287 288 288 288 285 279 276 282 292 292 292 292 293 294 294 293
287 284 288 297 296 291 288 289 290 296 295 296 294 295 292 289 291 288 290 292 295 294 296 295 290 284 280 283 287 284 287 288 287 281 283 282 285 286 289 291 293 293 293 293 293
285 285 285 285 289 291 292 290 289 290 295 296 293 293 291 287 289 289 292 292 293 295 294 292 281 285 286 287 286 284 285 287 285 287 282 285 286 290 289 291 292 293 293 293 293
286 285 285 289 292 291 291 289 289 291 292 292 292 293 293 290 290 288 291 291 289 292 292 293 281 284 278 286 286 283 287 287 288 288 287 288 286 292 292 293 293 294 294 293 293
288 287 287 289 289 289 288 291 291 294 295 296 295 293 292 294 296 296 297 296 294 291 290 289 283 281 274 283 284 280 284 287 288 290 288 284 290 293 292 292 293 293 294 294 294